This demonstration page uses our WeatherBlox Daily Observations layout. Learn more.

Left ArrowRight Arrow

34.16533, -84.80231

Hourly Observations for August 10, 2017

Temp ( °F °C ) Dew Point ( °F °C ) Humidity (%) Winds ( mph kmh ) Pressure ( in mb ) Visibility ( mi km ) Precip ( " mm )
12:53 am 00:53 Cloudy 72 22.2 71 21.7 97 97 VRB 3 6 30.15 1021 10 16 0.00 0.00
1:53 am 01:53 Cloudy 72 22.2 71 21.7 97 97 ESE 5 7 30.14 1021 10 16 0.00 0.00
2:42 am 02:42 Cloudy 72 22.2 71 21.7 97 97 E 3 6 30.15 1021 10 16 0.00 0.00
2:53 am 02:53 Cloudy 72 22.2 71 21.7 97 97 Calm 30.13 1020 10 16 0.00 0.00
3:53 am 03:53 Cloudy 72 22.2 71 21.7 97 97 VRB 3 6 30.13 1020 10 16 0.00 0.00
4:53 am 04:53 Cloudy 72 22.2 71 21.7 97 97 ESE 3 6 30.11 1020 10 16 0.00 0.00
5:26 am 05:26 Cloudy 72 22.2 71 21.7 97 97 E 3 6 30.12 1020 10 16 0.00 0.00
5:53 am 05:53 Cloudy 72 22.2 72 22.2 100 100 SE 3 6 30.13 1020 10 16 0.00 0.00
6:53 am 06:53 Cloudy 72 22.2 72 22.2 100 100 Calm 30.14 1021 10 16 0.00 0.00
7:53 am 07:53 Cloudy 73 22.8 72 22.2 96 96 E 5 7 30.14 1021 9 14 0.00 0.00
8:53 am 08:53 Cloudy 74 23.3 73 22.8 97 97 Calm 30.15 1021 10 16 0.00 0.00
9:25 am 09:25 Cloudy 74 23.3 73 22.8 97 97 SE 6 9 30.15 1021 10 16 0.00 0.00
9:53 am 09:53 Mostly Cloudy 76 24.4 73 22.8 91 91 ESE 5 7 30.15 1021 10 16 0.00 0.00
10:53 am 10:53 Cloudy 78 25.6 73 22.8 85 85 S 3 6 30.15 1021 10 16 0.00 0.00
11:53 am 11:53 Mostly Cloudy 81 27.2 74 23.3 79 79 SSW 10 17 30.14 1021 10 16 0.00 0.00
12:13 pm 12:13 Mostly Cloudy 80 26.7 74 23.3 82 82 S 9 15 30.12 1020 10 16 0.00 0.00
12:25 pm 12:25 Mostly Cloudy 82 27.8 74 23.3 77 77 S 10 17 30.12 1020 10 16 0.00 0.00
12:32 pm 12:32 Mostly Cloudy with Nearby Thunderstorms 81 27.2 74 23.3 79 79 SSE 9 15 30.12 1020 10 16 0.00 0.00
12:53 pm 12:53 Cloudy with Nearby Thunderstorms 79 26.1 74 23.3 85 85 S 7 11 30.14 1021 10 16 0.01 0.25
1:07 pm 13:07 Cloudy with Nearby Thunderstorms 76 24.4 76 24.4 100 100 VRB 5 7 30.15 1021 3 4 0.09 2.29
1:15 pm 13:15 Cloudy with Thunderstorms 78 25.6 76 24.4 93 93 Calm 30.15 1021 10 16 0.09 2.29
1:25 pm 13:25 Cloudy with Thunderstorms 78 25.6 76 24.4 93 93 N 8 13 30.15 1021 2 3 0.09 2.29
1:35 pm 13:35 Cloudy with Thunderstorms 77 25 76 24.4 96 96 NNE 10 17 30.15 1021 3 5 0.09 2.29
1:53 pm 13:53 Cloudy with Nearby Thunderstorms 74 23.3 74 23.3 100 100 NE 5 7 30.15 1021 2 2 0.22 5.59
1:56 pm 13:56 Cloudy with Heavy Rain 74 23.3 74 23.3 100 100 NE 12 19 30.15 1021 1 1 0.11 2.79
2:07 pm 14:07 Cloudy with Light Rain 74 23.3 74 23.3 100 100 E 7 11 30.12 1020 2 3 0.20 5.08
2:10 pm 14:10 Cloudy with Thunderstorms 74 23.3 74 23.3 100 100 ENE 6 9 30.12 1020 4 6 0.21 5.33
2:15 pm 14:15 Cloudy with Thunderstorms 74 23.3 74 23.3 100 100 VRB 3 6 30.15 1021 3 4 0.28 7.11
2:20 pm 14:20 Cloudy with Thunderstorms 74 23.3 74 23.3 100 100 N 8 13 30.15 1021 2 3 0.31 7.87
2:31 pm 14:31 Cloudy with Strong Thunderstorms 72 22.2 72 22.2 100 100 NE 6 9 30.15 1021 0 0 0.80 20.32
2:37 pm 14:37 Cloudy with Strong Thunderstorms 72 22.2 72 22.2 100 100 E 12 19 30.12 1020 1 1 1.01 25.65
2:42 pm 14:42 Cloudy with Strong Thunderstorms 73 22.8 73 22.8 100 100 VRB 5 7 30.12 1020 1 2 1.04 26.42
2:49 pm 14:49 Cloudy with Thunderstorms 73 23 73 23 100 100 Calm 30.12 1020 3 5 1.05 26.67
2:53 pm 14:53 Cloudy with Thunderstorms 73 22.8 73 22.8 100 100 SE 6 9 30.12 1020 3 5 1.09 27.69
3:11 pm 15:11 Cloudy with Nearby Thunderstorms 74 23.3 74 23.3 100 100 ESE 5 7 30.12 1020 9 14 0.03 0.76
3:31 pm 15:31 Cloudy 75 23.9 75 23.9 100 100 VRB 5 7 30.12 1020 10 16 0.03 0.76
3:53 pm 15:53 Cloudy 77 25 75 23.9 94 94 SE 7 11 30.09 1019 10 16 0.04 1.02
4:53 pm 16:53 Mostly Sunny 80 26.7 75 23.9 85 85 ESE 6 9 30.09 1019 10 16 0.00 0.00
5:53 pm 17:53 Sunny 80 26.7 74 23.3 82 82 ESE 5 7 30.07 1018 10 16 0.00 0.00
6:53 pm 18:53 Sunny 81 27.2 75 23.9 82 82 E 5 7 30.06 1018 10 16 0.00 0.00
7:53 pm 19:53 Sunny 77 25 77 25 100 100 SSE 3 6 30.08 1019 10 16 0.00 0.00
8:53 pm 20:53 Mostly Clear 77 25 76 24.4 96 96 Calm 30.09 1019 10 16 0.00 0.00
9:53 pm 21:53 Cloudy 76 24.4 74 23.3 94 94 VRB 6 9 30.10 1019 10 16 0.00 0.00
10:53 pm 22:53 Cloudy 75 23.9 74 23.3 96 96 Calm 30.11 1020 10 16 0.00 0.00
11:20 pm 23:20 Cloudy 75 23.9 74 23.3 96 96 SSE 5 7 30.12 1020 10 16 0.00 0.00
11:34 pm 23:34 Cloudy 75 23.9 74 23.3 96 96 SSE 7 11 30.12 1020 10 16 0.00 0.00
11:46 pm 23:46 Partly Cloudy 75 23.9 73 22.8 94 94 S 5 7 30.12 1020 10 16 0.00 0.00
11:53 pm 23:53 Partly Cloudy 74 23.3 74 23.3 100 100 Calm 30.11 1020 10 16 0.00 0.00

Powered by AerisWeather